Tracking 28237 objects as of 29-Nov-2023
HD Live streaming from Space Station
objects crossing your sky now

GORIZONT 30

Track GORIZONT 30 now!
GORIZONT 30 is classified as:


NORAD ID: 23108
Int'l Code: 1994-030A
Perigee: 35,803.2 km
Apogee: 35,833.4 km
Inclination: 14.4 °
Period: 1,437.4 minutes
Semi major axis: 42189 km
RCS: 12.5892 m2 (large)
Launch date: May 20, 1994
Source: Commonwealth of Independent States (former USSR) (CIS)
Launch site: TYURATAM MISSILE AND SPACE COMPLEX (TTMTR)
Your satellite tracking list
Your tracking list is empty




NASA's NSSDC Master Catalog

Two Line Element Set (TLE):
1 23108U 94030A   23333.18173583  .00000123  00000-0  00000+0 0  9995
2 23108  14.4334 355.1781 0003582 213.1112 319.5942  1.00184197108153
Source of the keplerian elements: AFSPC